ICE501 BIKF-GCTS

Flight info

Callsign ICE501
Flight time N/A
Altitude 35000
Route RIMUM1C RIMUM DCT 61N020W 55N019W 50N018W 45N017W 4000N01630W DCT NAVIX/N0461F350 T16 SNT UN975 ORTIS
Aircraft B752/M-SDE2E3FGHIJ3J4J7RWXY/LB1

Departure

Time 2026-04-29 17:46
Airport Keflavik International Airport (BIKF)

Arrival

Time N/A
Airport Tenerife Sur Airport (GCTS)
Time Latitude Longitude Altitude Speed Heading
2026-04-29 17:10 63.99388 -22.62172 143 ft 0 kts 238°
2026-04-29 17:38 63.99394 -22.62153 143 ft 2 kts 237°
2026-04-29 17:38 63.99402 -22.62124 143 ft 2 kts 237°
2026-04-29 17:38 63.99408 -22.62101 143 ft 0 kts 238°
2026-04-29 17:38 63.99416 -22.62078 143 ft 2 kts 216°
2026-04-29 17:39 63.99429 -22.62063 143 ft 2 kts 191°
2026-04-29 17:39 63.99444 -22.62063 143 ft 2 kts 165°
2026-04-29 17:39 63.99452 -22.62069 143 ft 1 kts 152°
2026-04-29 17:39 63.99457 -22.62076 143 ft 0 kts 150°
2026-04-29 17:40 63.99456 -22.62074 143 ft 2 kts 150°
2026-04-29 17:41 63.99388 -22.61999 143 ft 26 kts 167°
2026-04-29 17:41 63.99216 -22.61983 143 ft 9 kts 173°
2026-04-29 17:41 63.99175 -22.61716 143 ft 32 kts 89°
2026-04-29 17:41 63.99177 -22.61411 143 ft 8 kts 89°
2026-04-29 17:42 63.99174 -22.61121 146 ft 22 kts 91°
2026-04-29 17:42 63.99173 -22.61023 146 ft 6 kts 91°
2026-04-29 17:42 63.99170 -22.60838 146 ft 9 kts 91°
2026-04-29 17:42 63.99171 -22.60775 146 ft 0 kts 87°
2026-04-29 17:43 63.99172 -22.60740 146 ft 4 kts 87°
2026-04-29 17:43 63.99166 -22.60598 146 ft 12 kts 119°
2026-04-29 17:43 63.99102 -22.60546 147 ft 8 kts 175°
2026-04-29 17:44 63.99057 -22.60540 148 ft 4 kts 182°
2026-04-29 17:44 63.99028 -22.60543 149 ft 3 kts 182°
2026-04-29 17:44 63.98987 -22.60545 149 ft 12 kts 180°
2026-04-29 17:44 63.98818 -22.60548 152 ft 45 kts 180°
2026-04-29 17:45 63.98305 -22.60563 159 ft 102 kts 176°
2026-04-29 17:45 63.98106 -22.60554 161 ft 117 kts 180°
2026-04-29 17:45 63.97112 -22.60545 144 ft 171 kts 179°
2026-04-29 17:45 63.95822 -22.60579 513 ft 193 kts 181°
2026-04-29 17:46 63.95389 -22.60609 740 ft 195 kts 181°
2026-04-29 17:46 63.94150 -22.60506 1196 ft 193 kts 171°
2026-04-29 17:46 63.92807 -22.59422 1334 ft 219 kts 149°
2026-04-29 17:47 63.91423 -22.57555 1594 ft 242 kts 150°
2026-04-29 17:47 63.89881 -22.55678 2070 ft 254 kts 153°
2026-04-29 17:47 63.88318 -22.53952 2869 ft 255 kts 154°
2026-04-29 17:47 63.86708 -22.52213 3392 ft 266 kts 154°
2026-04-29 17:48 63.85071 -22.50409 4383 ft 256 kts 154°
2026-04-29 17:48 63.83470 -22.48680 5057 ft 260 kts 154°
2026-04-29 17:48 63.81834 -22.46951 5818 ft 260 kts 154°
2026-04-29 17:48 63.80196 -22.45237 6474 ft 263 kts 155°
2026-04-29 17:49 63.78519 -22.43492 7139 ft 266 kts 155°
2026-04-29 17:49 63.76835 -22.41747 7806 ft 268 kts 155°
2026-04-29 17:49 63.75142 -22.39997 8450 ft 271 kts 155°
2026-04-29 17:49 63.73434 -22.38235 9084 ft 274 kts 155°
2026-04-29 17:50 63.71699 -22.36450 9715 ft 276 kts 155°
2026-04-29 17:50 63.69916 -22.34616 10011 ft 285 kts 156°
2026-04-29 17:50 63.68138 -22.32791 9993 ft 278 kts 155°
2026-04-29 17:50 63.66374 -22.30916 10126 ft 288 kts 154°
2026-04-29 17:51 63.64496 -22.28889 10287 ft 310 kts 155°
2026-04-29 17:51 63.62487 -22.26728 10323 ft 336 kts 155°
2026-04-29 17:51 63.60342 -22.24424 10789 ft 346 kts 155°
2026-04-29 17:51 63.58152 -22.22076 11473 ft 351 kts 155°
2026-04-29 17:52 63.55967 -22.19737 12191 ft 354 kts 155°
2026-04-29 17:52 63.54472 -22.18138 12634 ft 356 kts 155°
2026-04-29 17:52 63.51489 -22.14956 13530 ft 361 kts 155°
2026-04-29 17:52 63.49215 -22.12534 14192 ft 364 kts 155°
2026-04-29 17:53 63.46938 -22.10114 14832 ft 368 kts 155°
2026-04-29 17:53 63.44608 -22.07641 15470 ft 371 kts 155°
2026-04-29 17:53 63.42277 -22.05172 16085 ft 375 kts 155°
2026-04-29 17:53 63.39934 -22.02695 16683 ft 378 kts 155°
2026-04-29 17:54 63.37542 -22.00171 17274 ft 381 kts 155°
2026-04-29 17:54 63.35158 -21.97659 17845 ft 385 kts 155°
2026-04-29 17:54 63.32739 -21.95116 18404 ft 388 kts 155°
2026-04-29 17:54 63.30288 -21.92543 18953 ft 391 kts 155°
2026-04-29 17:55 63.27817 -21.89955 19488 ft 394 kts 155°
2026-04-29 17:55 63.25362 -21.87389 20003 ft 397 kts 155°
2026-04-29 17:55 63.22847 -21.84764 20513 ft 400 kts 155°
2026-04-29 17:55 63.20338 -21.82151 21006 ft 403 kts 155°
2026-04-29 17:56 63.17787 -21.79499 21492 ft 406 kts 155°
2026-04-29 17:56 63.15203 -21.76819 21968 ft 409 kts 155°
2026-04-29 17:56 63.12644 -21.74169 22425 ft 412 kts 155°
2026-04-29 17:56 63.10036 -21.71474 22946 ft 412 kts 155°
2026-04-29 17:57 63.07524 -21.68895 23893 ft 401 kts 156°
2026-04-29 17:57 63.04898 -21.66544 24190 ft 406 kts 159°
2026-04-29 17:57 63.02270 -21.64282 24586 ft 409 kts 158°
2026-04-29 17:57 63.00515 -21.62756 24851 ft 410 kts 158°
2026-04-29 17:58 62.96968 -21.59677 25336 ft 413 kts 158°
2026-04-29 17:58 62.94326 -21.57385 25700 ft 415 kts 158°
2026-04-29 17:58 62.91606 -21.55029 26057 ft 418 kts 158°
2026-04-29 17:58 62.88896 -21.52686 26404 ft 420 kts 158°
2026-04-29 17:59 62.86190 -21.50351 26747 ft 422 kts 158°
2026-04-29 17:59 62.83466 -21.48005 27082 ft 424 kts 158°
2026-04-29 17:59 62.80726 -21.45650 27413 ft 427 kts 158°
2026-04-29 17:59 62.77958 -21.43275 27741 ft 429 kts 158°
2026-04-29 18:00 62.75187 -21.40902 28061 ft 431 kts 158°
2026-04-29 18:00 62.72412 -21.38531 28372 ft 433 kts 158°
2026-04-29 18:00 62.69603 -21.36136 28679 ft 435 kts 158°
2026-04-29 18:00 62.66781 -21.33734 28978 ft 437 kts 159°
2026-04-29 18:01 62.63952 -21.31331 29270 ft 439 kts 159°
2026-04-29 18:01 62.61111 -21.28924 29555 ft 441 kts 159°
2026-04-29 18:01 62.58256 -21.26509 29834 ft 443 kts 159°
2026-04-29 18:01 62.55366 -21.24070 30108 ft 445 kts 159°
2026-04-29 18:02 62.52487 -21.21645 30374 ft 447 kts 159°
2026-04-29 18:02 62.49615 -21.19231 30633 ft 449 kts 159°
2026-04-29 18:02 62.46706 -21.16791 30889 ft 450 kts 159°
2026-04-29 18:02 62.43787 -21.14347 31139 ft 452 kts 159°
2026-04-29 18:03 62.40851 -21.11895 31384 ft 454 kts 159°
2026-04-29 18:03 62.37901 -21.09437 31511 ft 459 kts 159°
2026-04-29 18:03 62.34910 -21.06949 31516 ft 466 kts 159°
2026-04-29 18:04 62.28779 -21.01867 31539 ft 480 kts 159°
2026-04-29 18:04 62.25699 -20.99321 31813 ft 480 kts 159°
2026-04-29 18:04 62.22570 -20.96742 32128 ft 479 kts 159°
2026-04-29 18:04 62.19466 -20.94188 32438 ft 479 kts 159°
2026-04-29 18:05 62.16404 -20.91675 32733 ft 478 kts 159°
2026-04-29 18:05 62.13313 -20.89144 33023 ft 477 kts 159°
2026-04-29 18:05 62.10211 -20.86608 33305 ft 477 kts 159°
2026-04-29 18:05 62.07130 -20.84096 33575 ft 476 kts 159°
2026-04-29 18:06 62.04063 -20.81600 33836 ft 475 kts 159°